Regional Weather Roundup
Issued by NWS Bismarck, ND

Home | Current Version | Previous Version | Text Only | Print | Product List | Glossary On
Versions: 1 2 3 4 5 6 7 8 9 10 11 12 13 14 15 16 17 18 19 20 21 22 23 24 25 26 27 28 29 30 31 32 33 34 35 36 37 38 39 40 41 42 43 44 45 46 47 48 49 50
000
ASUS43 KBIS 220910
RWRBIS

NWR BROADCAST TEXT
NATIONAL WEATHER SERVICE BISMARCK ND
400 AM CDT SAT JUL 22 2017

NOTE: "FAIR" INDICATES FEW OR NO CLOUDS BELOW 12,000 FEET WITH NO
SIGNIFICANT WEATHER AND/OR OBSTRUCTIONS TO VISIBILITY.


CITY           SKY/WX    TMP DP  RH WIND       PRES   REMARKS
WILLISTON      CLEAR     59  47  64 S3        29.94R
MINOT          CLEAR     61  52  72 SW7       29.87R
MINOT AFB      CLEAR     57  53  87 W10       29.86R
BISMARCK       CLEAR     62  61  96 SW3       29.89R
DICKINSON      CLEAR     58  46  64 NW8       29.95S
GARRISON         N/A     58  52  80 NW7       29.90R
HETTINGER ARPT CLEAR     56  45  66 NW5       29.99R
JAMESTOWN      CLEAR     66  61  84 W3        29.82F
HAZEN          FAIR      57  55  94 SW3       29.93R
LINTON         FAIR     N/A N/A N/A CALM      29.90R
MANDAN         CLOUDY    61  61 100 SW5       29.90R
STANLEY        FAIR      55  54  94 SW6       29.95R
TIOGA          FAIR      54  52  94 W7        29.95R
WATFORD CITY   FAIR      52  46  82 CALM      29.95R
$$

CITY           SKY/WX    TMP DP  RH WIND       PRES   REMARKS
GRAND FORKS    CLOUDY    70  70 100 N7        29.80R
GRAND FORKS AF CLOUDY    68  68 100 N5        29.81R
DEVILS LAKE    CLEAR     65  62  90 SW7       29.83S
FARGO          LGT RAIN  68  64  87 N16       29.82R
CAVALIER       FAIR      63  61  94 W7        29.76R
GRAFTON        FAIR      63  63 100 SE8       29.78F
GWINNER        CLOUDY    70  66  88 NW14G23   29.83R
LANGDON        FAIR      63  63 100 SW7       29.80S
ROLLA            N/A     57  57 100 SW6       29.82S
$$

CITY           SKY/WX    TMP DP  RH WIND       PRES   REMARKS
ABERDEEN       MOCLDY    68  67  96 W5        29.82S
MOBRIDGE       MOCLDY    65  63  93 CALM      29.85R
BUFFALO          N/A     60  45  57 SW6       29.95R
RAPID CITY     CLOUDY    68  42  38 N12       30.00S
GLASGOW        CLEAR     58  40  51 NW7       30.00R
SIDNEY         CLEAR     57  42  57 CALM      29.97R
WOLF POINT     CLEAR     55  41  59 SW5       29.97R
GLENDIVE       CLEAR     61  40  45 N9        29.99R
MILES CITY     PTCLDY    60  28  29 NW9       30.01R
BAKER          CLEAR     56  37  49 CALM      30.02R
$$

CITY           SKY/WX    TMP DP  RH WIND       PRES   REMARKS
BILLINGS       CLEAR     65  25  22 NW10      30.10R
GREAT FALLS    PTCLDY    61  36  39 E8        30.14R
REGINA         FOG       50  50 100 W5        29.92R VSB 3/4
ESTEVAN        PTCLDY    54  52  94 W17       29.90R
$$




USA.gov is the U.S. government's official web portal to all federal, state and local government web resources and services.